Bandera, Texas, United States (78003)
Lat: 29.73N, Lon: 99.07W
Wx Zone: TXZ187
Local Info
Past Weather Observations for Yesterday

NOTE: This archive is for the closest National Weather Service station to Bandera. Information may differ from the station used for current weather conditions.

Click here for Long-term Archive

Time Weather Temperature Dewpoint Humidity Pressure Winds Precip Visibility
23:51
Overcast
63°F / 17°C 63°F / 17°C 100% 30.06 in
(1018 mb)
SSE 15 mph
(SSE 24 kph)
- 10SM
22:51
Overcast
63°F / 17°C 63°F / 17°C 100% 30.04 in
(1017 mb)
SE 16.1 mph
(SE 26 kph)
- 10SM
21:51
Overcast
63°F / 17°C 63°F / 17°C 100% 30.04 in
(1017 mb)
SE 18.4 mph
(SE 30 kph)
- 10SM
21:11
Mostly Cloudy
63°F / 17°C 63°F / 17°C 100% 30.04 in
(1017 mb)
SE 17.3 mph
(SE 28 kph)
- 10SM
20:51
Overcast
63°F / 17°C 63°F / 17°C 100% 30.04 in
(1017 mb)
SE 16.1 mph
(SE 26 kph)
- 10SM
20:30
Overcast
64°F / 18°C 64°F / 18°C 100% 30.04 in
(1017 mb)
SE 17.3 mph
(SE 28 kph)
- 10SM
19:51
Overcast
64°F / 18°C N/A N/A 30.04 in
(1017 mb)
SE 12.7 mph
(SE 20 kph)
0.00 in
(0.00 mm)
10SM
19:14
Overcast
64°F / 18°C 64°F / 18°C 100% 30.04 in
(1017 mb)
SE 11.5 mph
(SE 19 kph)
- 10SM
18:51
Mostly Cloudy
64°F / 18°C 64°F / 18°C 100% 30.04 in
(1017 mb)
SE 11.5 mph
(SE 19 kph)
- 10SM
18:48
Mostly Cloudy
64°F / 18°C 64°F / 18°C 100% 30.04 in
(1017 mb)
SE 11.5 mph
(SE 19 kph)
- 10SM
18:06
Mostly Cloudy
64°F / 18°C 64°F / 18°C 100% 30.01 in
(1016 mb)
E 5.8 mph
(E 9 kph)
- 10SM
17:51
Mostly Cloudy
64°F / 18°C 64°F / 18°C 100% 30.01 in
(1016 mb)
SE 6.9 mph
(SE 11 kph)
- 10SM
17:16
Mostly Cloudy
66°F / 19°C 64°F / 18°C 94% 30.01 in
(1016 mb)
SSE 10.4 mph
(SSE 17 kph)
- 10SM
17:02
Mostly Cloudy
68°F / 20°C 64°F / 18°C 88% 30.01 in
(1016 mb)
SSE 13.8 mph
(SSE 22 kph)
- 10SM
16:51
Mostly Cloudy
66°F / 19°C 64°F / 18°C 94% 30.01 in
(1016 mb)
SSE 12.7 mph
(SSE 20 kph)
- 10SM
16:07
Mostly Cloudy
70°F / 21°C 64°F / 18°C 83% 30.01 in
(1016 mb)
SE 11.5 mph
(SE 19 kph)
- 10SM
15:51
Overcast
68°F / 20°C 64°F / 18°C 88% 30.01 in
(1016 mb)
SSE 13.8 mph
(SSE 22 kph)
- 10SM
14:51
Overcast
70°F / 21°C 64°F / 18°C 83% 30.01 in
(1016 mb)
SE 10.4 mph
(SE 17 kph)
- 10SM
14:27
Overcast
66°F / 19°C 64°F / 18°C 94% 30.01 in
(1016 mb)
SSE 11.5 mph
(SSE 19 kph)
- 10SM
14:13
Overcast
66°F / 19°C 64°F / 18°C 94% 30.04 in
(1017 mb)
SSE 11.5 mph
(SSE 19 kph)
- 10SM
13:51
Overcast
66°F / 19°C 64°F / 18°C 94% 30.04 in
(1017 mb)
SSE 11.5 mph
(SSE 19 kph)
0.00 in
(0.00 mm)
10SM
12:51
Overcast
Light Rain
66°F / 19°C 64°F / 18°C 94% 30.06 in
(1018 mb)
SSE 11.5 mph
(SSE 19 kph)
0.00 in
(0.00 mm)
10SM
11:51
Overcast
66°F / 19°C 63°F / 17°C 88% 30.09 in
(1019 mb)
SSE 8.1 mph
(SSE 13 kph)
- 10SM
11:41
Overcast
66°F / 19°C 63°F / 17°C 88% 30.09 in
(1019 mb)
SE 8.1 mph
(SE 13 kph)
- 10SM
10:51
Overcast
64°F / 18°C 63°F / 17°C 94% 30.12 in
(1020 mb)
SSE 8.1 mph
(SSE 13 kph)
- 10SM
10:07
Overcast
63°F / 17°C 63°F / 17°C 100% 30.12 in
(1020 mb)
SSE 8.1 mph
(SSE 13 kph)
- 10SM
09:56
Overcast
63°F / 17°C 63°F / 17°C 100% 30.12 in
(1020 mb)
SSE 9.2 mph
(SSE 15 kph)
- 10SM
09:51
Overcast
63°F / 17°C 63°F / 17°C 100% 30.12 in
(1020 mb)
SSE 9.2 mph
(SSE 15 kph)
- 10SM
09:23
Overcast
61°F / 16°C N/A N/A 30.12 in
(1020 mb)
SSE 10.4 mph
(SSE 17 kph)
- 10SM
08:51
Overcast
Hazy
61°F / 16°C N/A N/A 30.09 in
(1019 mb)
SSE 6.9 mph
(SSE 11 kph)
- 4SM
08:41
Overcast
Fog And Mist
61°F / 16°C N/A N/A 30.09 in
(1019 mb)
SSE 9.2 mph
(SSE 15 kph)
- 3SM
08:07
Overcast
Fog And Mist
59°F / 15°C N/A N/A 30.09 in
(1019 mb)
SSE 5.8 mph
(SSE 9 kph)
- 2 1/2SM
07:58
Overcast
Fog And Mist
59°F / 15°C N/A N/A 30.09 in
(1019 mb)
SSE 4.6 mph
(SSE 7 kph)
- 2SM
07:51
Overcast
Fog And Mist
59°F / 15°C N/A N/A 30.09 in
(1019 mb)
SE 4.6 mph
(SE 7 kph)
- 1SM
07:43
Overcast
Fog And Mist
59°F / 15°C N/A N/A 30.09 in
(1019 mb)
SE 3.5 mph
(SE 6 kph)
- 1SM
07:32
Overcast
Fog And Mist
59°F / 15°C N/A N/A 30.09 in
(1019 mb)
SSE 4.6 mph
(SSE 7 kph)
- 1 1/4SM
07:24
Overcast
Fog And Mist
59°F / 15°C N/A N/A 30.09 in
(1019 mb)
SSE 4.6 mph
(SSE 7 kph)
- 2SM
06:51
Overcast
Hazy
59°F / 15°C N/A N/A 30.09 in
(1019 mb)
SSE 6.9 mph
(SSE 11 kph)
- 4SM
06:40
Overcast
Fog And Mist
59°F / 15°C N/A N/A 30.06 in
(1018 mb)
SSE 6.9 mph
(SSE 11 kph)
- 3SM
06:33
Overcast
Fog And Mist
59°F / 15°C N/A N/A 30.06 in
(1018 mb)
SSE 10.4 mph
(SSE 17 kph)
- 2 1/2SM
06:30
Overcast
Fog And Mist
59°F / 15°C N/A N/A 30.06 in
(1018 mb)
SSE 9.2 mph
(SSE 15 kph)
- 1 3/4SM
06:17
Overcast
Fog And Mist
59°F / 15°C N/A N/A 30.06 in
(1018 mb)
SSE 9.2 mph
(SSE 15 kph)
- 1SM
06:02
Overcast
Fog And Mist
59°F / 15°C N/A N/A 30.06 in
(1018 mb)
SSE 9.2 mph
(SSE 15 kph)
- 1 1/4SM
05:51
Overcast
Fog And Mist
59°F / 15°C N/A N/A 30.06 in
(1018 mb)
SSE 8.1 mph
(SSE 13 kph)
- 1SM
05:38
Overcast
Fog And Mist
59°F / 15°C N/A N/A 30.06 in
(1018 mb)
SSE 5.8 mph
(SSE 9 kph)
- 1SM
04:51
Overcast
Fog And Mist
59°F / 15°C N/A N/A 30.04 in
(1017 mb)
SSE 8.1 mph
(SSE 13 kph)
- 1 1/4SM
04:27
Overcast
Fog And Mist
59°F / 15°C N/A N/A 30.04 in
(1017 mb)
SSE 6.9 mph
(SSE 11 kph)
- 1 1/4SM
03:51
Obscured
Fog
59°F / 15°C N/A N/A 30.06 in
(1018 mb)
SSE 5.8 mph
(SSE 9 kph)
- 1/2SM
02:51
Obscured
Fog
57°F / 14°C N/A N/A 30.06 in
(1018 mb)
SSE 4.6 mph
(SSE 7 kph)
- 1/2SM
02:39
Overcast
Fog And Mist
57°F / 14°C N/A N/A 30.06 in
(1018 mb)
S 5.8 mph
(S 9 kph)
- 3/4SM
02:05
Overcast
Fog And Mist
57°F / 14°C N/A N/A 30.06 in
(1018 mb)
SSE 4.6 mph
(SSE 7 kph)
- 1SM
01:25
Overcast
Fog And Mist
57°F / 14°C N/A N/A 30.06 in
(1018 mb)
SSE 6.9 mph
(SSE 11 kph)
- 1 1/4SM
00:51
Obscured
Fog
57°F / 14°C N/A N/A 30.06 in
(1018 mb)
SE 5.8 mph
(SE 9 kph)
- 1/4SM
00:26
Overcast
Fog
57°F / 14°C N/A N/A 30.06 in
(1018 mb)
SE 5.8 mph
(SE 9 kph)
- 1/2SM
00:18
Overcast
Fog And Mist
57°F / 14°C N/A N/A 30.06 in
(1018 mb)
SE 5.8 mph
(SE 9 kph)
- 1SM
00:10
Overcast
Fog And Mist
57°F / 14°C N/A N/A 30.06 in
(1018 mb)
ESE 4.6 mph
(ESE 7 kph)
- 2SM
Time Weather Temperature Dewpoint Humidity Pressure Winds Precip Visibility


Weather for websites

WeatherForYou.com, LLC is not responsible for any damages or problems caused by this service. Current weather conditions are obtained from the closest station including government and personal stations which may have varying degrees of accuracy. Weather forecasts are derived from the NOAA NDFD. Like all things, this site belongs to Jesus Christ... He just trusts me to maintain it. If you have any questions or comments email webmaster@weatherforyou.com

Copyright © 2014, WeatherForYou.com LLC. All rights reserved.